PBO Station Position Time Series. Reference Frame : NAM14
Format Version,1.1.0
4-character ID,P794
Station name,AnthonyPk2CN2009
Begin Date, 2009-08-28
End Date, 2019-10-07
Release Date, 2019-10-08
Reference position, 39.8456800671 North Latitude, -122.9637572025 East Longitude, 2088.61935 meters elevation,
Date, North (mm), East (mm), Vertical (mm), North Std. Deviation (mm), East Std. Deviation (mm),              Vertical Std. Deviation (mm), Quality,
2009-08-28,0.00, 0.00, 0.00, 2.09, 1.60, 7.31, repro,
2009-08-29,-1.06, -1.23, 3.28, 2.11, 1.60, 7.40, repro,
2009-08-30,-1.45, 0.51, 1.29, 2.12, 1.61, 7.43, repro,
2009-08-31,-0.45, 0.61, 6.78, 2.09, 1.60, 7.34, repro,
2009-09-01,-1.77, 0.38, 1.50, 2.12, 1.63, 7.47, repro,
2009-09-02,0.44, -0.25, 7.78, 2.27, 1.81, 8.33, repro,
2009-09-03,0.77, 0.85, 1.74, 2.11, 1.61, 7.43, repro,
2009-09-04,-0.64, -0.11, -0.80, 2.11, 1.60, 7.45, repro,
2009-09-05,-1.24, 0.03, 1.67, 2.16, 1.66, 7.68, repro,
2009-09-06,-2.16, -1.84, 8.55, 2.22, 1.66, 7.88, repro,
2009-09-07,-0.95, -1.16, 1.75, 2.09, 1.60, 7.37, repro,
2009-09-08,-0.69, -0.74, 5.08, 2.10, 1.61, 7.42, repro,
2009-09-09,-1.37, -0.60, 2.00, 2.11, 1.62, 7.50, repro,
2009-09-10,-2.78, -0.42, 0.97, 2.12, 1.61, 7.47, repro,
2009-09-11,-1.31, -0.86, 5.02, 2.10, 1.60, 7.39, repro,
2009-09-12,0.00, -0.38, 4.19, 2.06, 1.58, 7.24, repro,
2009-09-13,0.51, 0.71, 8.41, 2.07, 1.62, 7.41, repro,
2009-09-14,-2.04, -1.17, 5.74, 2.09, 1.62, 7.45, repro,
2009-09-15,-1.10, -0.44, -0.28, 2.12, 1.63, 7.53, repro,
2009-09-16,-0.56, 0.26, 6.26, 2.08, 1.60, 7.33, repro,
2009-09-17,-1.28, 0.32, 6.00, 2.10, 1.66, 7.44, repro,
2009-09-18,0.73, -0.68, 1.52, 2.14, 1.68, 7.58, repro,
2009-09-19,1.21, -0.38, 7.05, 2.08, 1.60, 7.37, repro,
2009-09-20,-1.67, -0.80, 3.36, 2.09, 1.61, 7.41, repro,
2009-09-21,0.53, -0.25, 0.37, 2.13, 1.63, 7.49, repro,
2009-09-22,-0.03, -0.50, 1.10, 2.12, 1.63, 7.48, repro,
2009-09-23,0.29, -0.05, 1.72, 2.11, 1.63, 7.45, repro,
2009-09-25,-0.17, 0.08, 6.64, 2.17, 1.69, 7.78, repro,
2009-09-26,0.17, -1.67, 3.49, 2.08, 1.60, 7.36, repro,
2009-09-27,-0.77, 0.41, 5.49, 2.09, 1.60, 7.39, repro,
2009-09-28,0.22, 1.08, 1.30, 2.13, 1.61, 7.48, repro,
2009-09-29,-1.71, 1.48, 5.12, 2.14, 1.64, 7.49, repro,
2009-09-30,-0.79, -0.58, 5.09, 2.07, 1.60, 7.35, repro,
2009-10-01,-1.69, -0.40, 4.40, 2.09, 1.61, 7.42, repro,
2009-10-02,-0.12, 0.67, 1.12, 2.08, 1.60, 7.36, repro,
2009-10-03,-0.32, 0.45, 4.07, 2.08, 1.60, 7.37, repro,
2009-10-04,-1.56, 0.03, 0.92, 2.08, 1.59, 7.35, repro,
2009-10-05,0.36, -0.19, -0.74, 2.08, 1.60, 7.38, repro,
2009-10-06,-0.45, -1.20, 3.61, 2.08, 1.60, 7.37, repro,
2009-10-07,1.24, 0.44, 1.94, 2.08, 1.60, 7.36, repro,
2009-10-08,-0.24, 0.40, 7.16, 2.20, 1.69, 7.64, repro,
2009-10-09,0.18, 0.61, -1.25, 2.06, 1.59, 7.31, repro,
2009-10-10,-0.53, -0.26, 3.95, 2.08, 1.62, 7.41, repro,
2009-10-11,0.02, 0.45, 2.91, 2.08, 1.60, 7.34, repro,
2009-10-12,0.01, -0.05, 5.04, 2.13, 1.66, 7.60, repro,
2009-10-13,0.77, 0.27, 6.78, 2.10, 1.63, 7.49, repro,
2009-10-14,3.38, 0.93, 8.58, 2.08, 1.61, 7.37, repro,
2009-10-15,-0.22, 0.32, 3.54, 2.10, 1.66, 7.54, repro,
2009-10-16,-0.10, 0.21, 1.34, 2.09, 1.65, 7.47, repro,
2009-10-17,1.69, 0.75, -5.59, 2.13, 1.70, 7.66, repro,
2009-10-18,0.11, 0.84, 4.20, 2.11, 1.66, 7.52, repro,
2009-10-19,0.52, 1.48, 5.98, 2.11, 1.66, 7.53, repro,
2009-10-20,-0.26, 0.42, -2.61, 2.12, 1.69, 7.59, repro,
2009-10-21,0.34, 0.87, 6.44, 2.09, 1.66, 7.51, repro,
2009-10-22,0.63, 0.49, 4.30, 2.09, 1.66, 7.48, repro,
2009-10-23,0.23, 0.86, 1.86, 2.10, 1.67, 7.53, repro,
2009-10-24,-0.35, 1.48, 7.81, 2.12, 1.67, 7.58, repro,
2009-10-25,0.93, -0.79, 1.42, 2.17, 1.69, 7.65, repro,
2009-10-26,-1.59, 0.42, 4.67, 2.13, 1.69, 7.58, repro,
2009-10-27,-1.22, 0.97, 11.10, 2.12, 1.68, 7.59, repro,
2009-10-28,-1.07, -0.90, 9.14, 2.09, 1.63, 7.52, repro,
2009-10-29,-0.53, -0.26, 3.35, 2.13, 1.68, 7.60, repro,
2009-10-30,0.47, 0.98, -1.20, 2.15, 1.68, 7.68, repro,
2009-10-31,0.24, 0.46, 7.38, 2.12, 1.67, 7.70, repro,
2009-11-01,1.28, 0.84, 3.50, 2.12, 1.66, 7.60, repro,
2009-11-02,1.94, 0.69, -0.80, 2.12, 1.64, 7.53, repro,
2009-11-03,0.90, 0.64, 2.86, 2.11, 1.64, 7.57, repro,
2009-11-04,0.95, 0.86, 0.18, 2.18, 1.72, 7.82, repro,
2009-11-05,1.17, 1.33, 3.68, 2.25, 1.81, 8.08, repro,
2009-11-06,1.39, 1.55, 7.22, 2.17, 1.73, 7.86, repro,
2009-11-07,0.69, -0.26, 6.47, 2.18, 1.74, 7.85, repro,
2009-11-08,0.66, -0.26, 2.35, 2.13, 1.69, 7.63, repro,
2009-11-09,0.22, 0.52, 0.37, 2.14, 1.70, 7.74, repro,
2009-11-10,0.80, 0.41, -0.27, 2.14, 1.70, 7.76, repro,
2009-11-11,1.50, 0.11, 1.64, 2.13, 1.70, 7.68, repro,
2009-11-12,0.95, -1.18, 7.33, 2.16, 1.77, 7.92, repro,
2009-11-13,0.99, -0.45, 7.44, 2.16, 1.72, 7.84, repro,
2009-11-14,-0.92, 0.23, 6.07, 2.14, 1.69, 7.65, repro,
2009-11-15,1.41, 0.19, -3.98, 2.19, 1.76, 7.87, repro,
2009-11-16,1.62, 0.96, 2.11, 2.10, 1.66, 7.59, repro,
2009-11-17,-0.23, 1.75, 4.39, 2.24, 1.75, 8.00, repro,
2009-11-18,-1.85, 1.05, 6.36, 2.18, 1.69, 7.83, repro,
2009-11-19,1.69, 0.35, 5.10, 2.13, 1.69, 7.66, repro,
2009-11-20,1.94, -0.18, 5.41, 2.14, 1.69, 7.69, repro,
2009-11-21,0.55, 1.91, 7.19, 2.10, 1.65, 7.55, repro,
2009-11-22,-5.01, 6.30, 6.11, 2.11, 1.70, 7.73, repro,
2009-11-23,0.45, -0.07, 5.38, 2.08, 1.62, 7.46, repro,
2009-11-24,3.06, -1.30, -9.20, 2.16, 1.72, 7.76, repro,
2009-11-25,3.03, 0.23, -6.72, 2.09, 1.65, 7.49, repro,
2009-11-26,2.00, -0.25, -4.89, 2.11, 1.65, 7.52, repro,
2009-11-27,-0.33, 0.28, -4.59, 2.08, 1.66, 7.53, repro,
2009-11-28,1.07, -0.72, -0.01, 2.09, 1.66, 7.53, repro,
2009-11-29,2.55, -1.11, -8.57, 2.09, 1.66, 7.50, repro,
2009-11-30,2.55, -0.60, -5.85, 2.10, 1.65, 7.47, repro,
2009-12-01,2.57, -0.35, -1.57, 2.08, 1.60, 7.34, repro,
2009-12-02,1.98, 0.06, -2.39, 2.07, 1.59, 7.30, repro,
2009-12-03,2.54, -0.35, -4.21, 2.08, 1.65, 7.44, repro,
2009-12-04,2.44, -0.13, -1.92, 2.05, 1.59, 7.25, repro,
2009-12-05,2.76, 0.25, -2.55, 2.07, 1.61, 7.40, repro,
2009-12-06,0.62, -0.49, 5.94, 2.07, 1.59, 7.33, repro,
2009-12-07,1.15, 0.48, 6.42, 2.08, 1.60, 7.39, repro,
2009-12-08,1.30, -0.63, 2.54, 2.11, 1.62, 7.48, repro,
2009-12-09,2.90, 0.92, 1.84, 2.11, 1.67, 7.59, repro,
2009-12-10,2.68, 0.55, 1.16, 2.06, 1.59, 7.32, repro,
2009-12-11,2.71, 0.73, 1.61, 2.14, 1.70, 7.68, repro,
2009-12-12,3.90, 1.33, 2.04, 2.12, 1.67, 7.61, repro,
2009-12-13,2.73, 1.81, 1.67, 2.07, 1.60, 7.34, repro,
2009-12-14,2.20, 0.14, -4.59, 2.09, 1.65, 7.46, repro,
2009-12-15,3.22, 0.97, -10.68, 2.07, 1.61, 7.41, repro,
2009-12-16,2.77, 3.56, -6.86, 2.10, 1.65, 7.49, repro,
2009-12-17,1.88, -0.13, -7.50, 2.12, 1.65, 7.52, repro,
2009-12-18,1.14, 2.20, -11.64, 2.10, 1.60, 7.45, repro,
2009-12-19,0.98, 1.23, -2.56, 2.09, 1.61, 7.42, repro,
2009-12-20,2.56, 0.53, -6.07, 2.09, 1.63, 7.46, repro,
2009-12-21,1.46, 0.81, -2.05, 2.09, 1.63, 7.44, repro,
2009-12-22,-2.26, 0.36, -3.37, 2.15, 1.69, 7.69, repro,
2009-12-23,0.61, 0.97, -7.90, 2.09, 1.63, 7.56, repro,
2009-12-24,2.25, 1.66, -5.96, 2.07, 1.59, 7.37, repro,
2009-12-25,2.69, 1.15, -6.07, 2.04, 1.58, 7.25, repro,
2009-12-26,2.69, 0.11, -0.00, 2.06, 1.61, 7.33, repro,
2009-12-27,2.74, 1.41, -5.23, 2.06, 1.60, 7.35, repro,
2009-12-28,2.75, 1.29, -8.59, 2.08, 1.60, 7.35, repro,
2009-12-29,1.65, 0.96, -8.10, 2.04, 1.57, 7.19, repro,
2009-12-30,-1.16, 7.17, 3.90, 2.05, 1.58, 7.28, repro,
2009-12-31,1.63, 2.53, -7.57, 2.07, 1.60, 7.37, repro,
2010-01-01,5.03, 3.06, -0.51, 2.04, 1.59, 7.30, repro,
2010-01-02,2.65, 1.02, -6.65, 2.11, 1.63, 7.54, repro,
2010-01-03,2.02, 0.92, -9.12, 2.06, 1.59, 7.30, repro,
2010-01-04,3.36, 0.71, -5.97, 2.05, 1.57, 7.26, repro,
2010-01-05,2.73, 1.77, -9.11, 2.06, 1.59, 7.36, repro,
2010-01-06,1.24, 0.05, -12.21, 2.04, 1.58, 7.31, repro,
2010-01-07,1.30, 1.38, -10.44, 2.04, 1.58, 7.28, repro,
2010-01-08,3.13, 1.68, -8.78, 2.08, 1.59, 7.45, repro,
2010-01-09,2.01, 2.35, -8.06, 2.07, 1.58, 7.33, repro,
2010-01-10,2.15, 1.88, -7.18, 2.05, 1.58, 7.31, repro,
2010-01-11,0.74, 2.36, -1.04, 2.05, 1.58, 7.31, repro,
2010-01-12,2.79, 1.93, 2.93, 2.05, 1.58, 7.30, repro,
2010-01-13,1.12, 5.22, -7.38, 2.11, 1.62, 7.52, repro,
2010-01-14,2.26, 1.14, -12.05, 2.18, 1.71, 7.86, repro,
2010-01-15,1.82, 1.57, -7.00, 2.14, 1.65, 7.59, repro,
2010-01-16,0.20, 0.18, -3.13, 2.08, 1.61, 7.39, repro,
2010-01-17,1.31, 0.96, 5.15, 2.17, 1.69, 7.66, repro,
2010-01-18,2.94, 6.05, 12.41, 2.05, 1.58, 7.29, repro,
2010-01-19,3.15, 9.67, 11.18, 2.12, 1.59, 7.43, repro,
2010-01-20,2.94, 9.47, 8.87, 2.18, 1.66, 7.79, repro,
2010-01-21,6.71, 9.35, 6.59, 2.12, 1.66, 7.57, repro,
2010-01-22,6.17, 12.20, 3.10, 2.05, 1.59, 7.33, repro,
2010-01-23,6.09, 12.84, 0.13, 2.05, 1.59, 7.32, repro,
2010-01-24,6.78, 11.31, 1.44, 2.09, 1.61, 7.47, repro,
2010-01-25,14.70, 13.65, 10.22, 2.11, 1.62, 7.60, repro,
2010-01-26,11.47, 8.13, 5.95, 2.18, 1.67, 7.79, repro,
2010-01-27,1.11, 0.73, -10.27, 2.27, 1.78, 8.23, repro,
2010-01-28,2.62, 0.87, -15.32, 2.12, 1.66, 7.68, repro,
2010-01-29,1.34, 0.83, -12.46, 2.08, 1.61, 7.45, repro,
2010-01-30,0.59, 1.03, -12.25, 2.16, 1.71, 7.79, repro,
2010-01-31,1.06, 0.71, -9.78, 2.22, 1.76, 8.06, repro,
2010-02-01,0.48, 1.55, -5.46, 2.19, 1.75, 7.97, repro,
2010-02-02,1.01, 1.59, 0.94, 2.19, 1.65, 7.80, repro,
2010-02-03,1.15, 1.73, -2.01, 2.15, 1.68, 7.78, repro,
2010-02-04,1.42, 1.36, -5.55, 2.18, 1.75, 8.09, repro,
2010-02-05,1.66, 1.58, -5.21, 2.11, 1.67, 7.64, repro,
2010-02-06,1.79, -0.06, -8.98, 2.15, 1.68, 7.80, repro,
2010-02-07,-1.05, -0.05, -7.50, 2.15, 1.63, 7.61, repro,
2010-02-08,-1.02, 0.18, -1.72, 2.17, 1.68, 7.79, repro,
2010-02-09,0.78, -0.39, -5.85, 2.19, 1.69, 7.82, repro,
2010-02-10,0.57, 0.37, -6.16, 2.20, 1.74, 7.87, repro,
2010-02-11,-0.81, 5.19, -3.60, 2.13, 1.67, 7.70, repro,
2010-02-12,-1.14, 4.96, -2.42, 2.16, 1.71, 7.90, repro,
2010-02-13,-0.30, 1.02, -5.64, 2.15, 1.71, 7.92, repro,
2010-02-14,0.06, 2.40, -9.02, 2.17, 1.70, 7.77, repro,
2010-02-15,-0.64, 2.95, -8.99, 2.18, 1.74, 7.96, repro,
2010-02-16,1.33, 1.16, -11.63, 2.36, 1.77, 8.47, repro,
2010-02-17,0.89, 0.21, -14.10, 2.31, 1.80, 8.36, repro,
2010-02-18,0.95, 0.15, -13.09, 2.34, 1.81, 8.46, repro,
2010-02-19,0.18, 1.45, -6.77, 2.39, 1.87, 8.75, repro,
2010-02-20,0.53, 0.64, -9.16, 2.20, 1.71, 7.86, repro,
2010-02-21,0.46, 1.99, -6.75, 2.09, 1.61, 7.41, repro,
2010-02-22,0.14, 0.56, -14.77, 2.14, 1.62, 7.53, repro,
2010-02-23,0.19, -0.08, -12.82, 2.30, 1.74, 8.16, repro,
2010-02-24,0.88, 5.95, -10.64, 2.17, 1.64, 7.66, repro,
2010-02-25,0.31, 0.66, -15.99, 2.12, 1.64, 7.60, repro,
2010-02-26,1.74, 0.66, -16.80, 2.13, 1.67, 7.65, repro,
2010-02-27,0.88, 0.60, -8.89, 2.19, 1.71, 7.81, repro,
2010-02-28,0.29, -1.75, -13.38, 2.15, 1.67, 7.64, repro,
2010-03-01,-1.09, 0.41, -9.46, 2.13, 1.65, 7.60, repro,
2010-03-02,-1.45, 1.13, -7.31, 2.30, 1.79, 8.41, repro,
2010-03-03,0.21, -0.13, -11.18, 2.12, 1.65, 7.56, repro,
2010-03-04,-2.08, -1.78, -9.87, 2.08, 1.60, 7.32, repro,
2010-03-05,-2.34, -1.99, -9.56, 2.13, 1.58, 7.40, repro,
2010-03-06,-2.76, -1.74, -6.12, 2.05, 1.56, 7.26, repro,
2010-03-07,-4.12, -1.13, -0.45, 2.16, 1.63, 7.54, repro,
2010-03-08,-1.50, -1.67, -11.73, 2.19, 1.72, 7.80, repro,
2010-03-09,-2.49, -2.72, -10.27, 2.13, 1.62, 7.46, repro,
2010-03-10,-5.00, -3.08, -5.75, 2.06, 1.55, 7.26, repro,
2010-03-11,-3.46, -2.31, -9.80, 2.04, 1.54, 7.16, repro,
2010-03-12,-1.82, 0.59, -2.48, 2.06, 1.57, 7.30, repro,
2010-03-13,-2.96, -0.08, -10.89, 2.15, 1.63, 7.57, repro,
2010-03-14,-3.49, -3.00, -17.46, 2.20, 1.68, 7.78, repro,
2010-03-15,-1.63, -3.53, -24.40, 2.12, 1.58, 7.40, repro,
2010-03-16,-2.09, -3.66, -19.11, 2.12, 1.58, 7.39, repro,
2010-03-17,-3.07, -4.34, -16.98, 2.11, 1.60, 7.42, repro,
2010-03-18,-4.79, -3.59, -12.57, 2.07, 1.56, 7.31, repro,
2010-03-19,-3.55, -4.17, -11.55, 2.06, 1.56, 7.29, repro,
2010-03-20,-4.08, -4.33, -12.01, 2.07, 1.55, 7.28, repro,
2010-03-21,-4.21, -2.79, -9.08, 2.07, 1.55, 7.32, repro,
2010-03-22,-3.88, -3.25, -9.01, 2.06, 1.55, 7.24, repro,
2010-03-23,-3.92, -3.43, -8.52, 2.17, 1.64, 7.58, repro,
2010-03-24,-3.88, -2.57, -7.73, 2.23, 1.68, 7.83, repro,
2010-03-25,-3.07, -1.45, -3.89, 2.21, 1.67, 7.81, repro,
2010-03-26,-2.94, -2.15, -9.60, 2.12, 1.58, 7.48, repro,
2010-03-27,-3.61, -2.56, -7.82, 2.15, 1.63, 7.61, repro,
2010-03-28,-2.62, -1.28, -9.61, 2.18, 1.63, 7.71, repro,
2010-03-29,-0.66, -1.95, -8.26, 2.22, 1.65, 7.81, repro,
2010-03-30,-2.35, -0.32, -18.53, 2.29, 1.65, 7.88, repro,
2010-03-31,-6.35, 1.01, 0.50, 2.16, 1.61, 7.63, repro,
2010-04-01,-6.62, 0.60, -9.49, 2.19, 1.64, 7.77, repro,
2010-04-02,-5.37, 0.50, -10.19, 2.19, 1.66, 7.90, repro,
2010-04-03,-10.47, -2.41, 3.71, 2.26, 1.70, 8.00, repro,
2010-04-04,-11.74, -1.30, 1.18, 2.27, 1.71, 7.99, repro,
2010-04-05,-11.72, -3.32, -2.96, 2.26, 1.69, 7.98, repro,
2010-04-06,-11.71, -1.51, -18.26, 2.22, 1.66, 7.76, repro,
2010-04-07,-7.07, -3.16, -11.37, 2.18, 1.64, 7.80, repro,
2010-04-08,-9.73, -3.67, -6.24, 2.18, 1.64, 7.69, repro,
2010-04-09,-8.80, -4.28, -2.09, 2.27, 1.64, 7.76, repro,
2010-04-10,-7.21, -4.79, -0.21, 2.21, 1.60, 7.69, repro,
2010-04-11,-7.82, -4.64, -3.94, 2.14, 1.59, 7.49, repro,
2010-04-12,-7.01, -2.98, -8.76, 2.26, 1.66, 7.94, repro,
2010-04-13,-7.50, -3.46, -12.62, 2.14, 1.60, 7.43, repro,
2010-04-14,-6.28, -3.37, -17.46, 2.27, 1.66, 7.93, repro,
2010-04-15,-7.99, -3.77, -9.22, 2.20, 1.60, 7.68, repro,
2010-04-16,-8.15, -3.69, -8.58, 2.09, 1.54, 7.25, repro,
2010-04-17,-8.88, -2.69, -6.14, 2.15, 1.57, 7.42, repro,
2010-04-18,-8.24, -3.13, -0.56, 2.10, 1.55, 7.29, repro,
2010-04-19,-7.95, -4.20, -1.36, 2.18, 1.63, 7.62, repro,
2010-04-20,-7.57, -3.78, -4.15, 2.25, 1.66, 7.84, repro,
2010-04-21,-8.92, -3.13, 1.65, 2.23, 1.63, 7.63, repro,
2010-04-22,-6.84, -4.31, -1.68, 2.21, 1.65, 7.64, repro,
2010-04-23,-8.76, -2.52, -0.23, 2.19, 1.62, 7.62, repro,
2010-04-24,-6.47, -1.82, -12.80, 2.12, 1.57, 7.36, repro,
2010-04-25,-2.94, -3.16, -14.62, 2.11, 1.57, 7.38, repro,
2010-04-26,-3.45, -2.39, -11.46, 2.15, 1.61, 7.48, repro,
2010-04-27,-4.14, -0.63, -9.72, 2.27, 1.64, 7.73, repro,
2010-04-28,-5.68, -1.06, -8.53, 2.18, 1.62, 7.56, repro,
2010-04-29,-5.18, -1.96, -9.78, 2.13, 1.60, 7.41, repro,
2010-04-30,-6.08, -1.58, -3.42, 2.15, 1.61, 7.46, repro,
2010-05-01,-10.25, -3.07, -1.14, 2.10, 1.56, 7.33, repro,
2010-05-02,-6.96, -1.90, -10.30, 2.13, 1.59, 7.37, repro,
2010-05-03,-3.90, 0.44, -13.50, 2.14, 1.62, 7.52, repro,
2010-05-04,-3.16, -1.71, -14.27, 2.15, 1.60, 7.42, repro,
2010-05-05,-4.64, -1.07, -19.93, 2.15, 1.60, 7.44, repro,
2010-05-06,-6.11, -1.87, -14.98, 2.08, 1.55, 7.25, repro,
2010-05-07,-5.49, -1.24, -11.66, 2.13, 1.57, 7.39, repro,
2010-05-08,-4.84, -2.55, -15.89, 2.08, 1.55, 7.22, repro,
2010-05-09,-4.54, -1.96, -12.65, 2.09, 1.55, 7.20, repro,
2010-05-10,-5.09, -0.08, -7.41, 2.10, 1.55, 7.29, repro,
2010-05-11,-4.47, -0.89, -4.65, 2.15, 1.60, 7.45, repro,
2010-05-12,-3.23, -1.71, -12.06, 2.15, 1.58, 7.46, repro,
2010-05-13,-4.39, -2.50, -14.25, 2.08, 1.54, 7.19, repro,
2010-05-14,-4.84, -1.00, -10.91, 2.18, 1.62, 7.57, repro,
2010-05-15,-5.64, -2.36, -7.71, 2.20, 1.62, 7.51, repro,
2010-05-16,-5.41, -1.37, -2.65, 2.12, 1.56, 7.34, repro,
2010-05-17,-3.36, 0.21, -6.15, 2.18, 1.60, 7.46, repro,
2010-05-18,-4.38, 0.83, -2.36, 2.10, 1.55, 7.24, repro,
2010-05-19,-3.82, 0.19, -5.71, 2.33, 1.68, 7.83, repro,
2010-05-20,-4.19, 0.07, -6.33, 2.32, 1.66, 7.79, repro,
2010-05-21,-2.72, -0.33, -11.75, 2.11, 1.56, 7.25, repro,
2010-05-22,-3.47, -0.13, 1.98, 2.12, 1.55, 7.28, repro,
2010-05-23,-4.25, 0.06, -0.10, 2.15, 1.60, 7.43, repro,
2010-05-24,-4.25, 0.26, -5.23, 2.16, 1.61, 7.45, repro,
2010-05-25,-1.76, -0.06, -21.75, 2.12, 1.57, 7.33, repro,
2010-05-26,-2.27, -0.63, -7.74, 2.12, 1.56, 7.28, repro,
2010-05-27,-2.51, 0.45, -10.62, 2.17, 1.61, 7.44, repro,
2010-05-28,-4.04, -0.52, -16.82, 2.14, 1.59, 7.37, repro,
2010-05-29,-4.16, 0.40, -6.40, 2.15, 1.60, 7.38, repro,
2010-05-30,-2.93, 0.30, -9.77, 2.17, 1.61, 7.42, repro,
2010-05-31,-3.55, 0.38, -9.43, 2.26, 1.70, 7.85, repro,
2010-06-01,-3.62, 0.21, -5.83, 2.26, 1.74, 7.90, repro,
2010-06-02,-4.15, -0.12, 6.97, 2.17, 1.64, 7.55, repro,
2010-06-03,-3.59, 1.35, -12.59, 2.08, 1.55, 7.14, repro,
2010-06-04,0.06, 4.31, -5.13, 2.11, 1.57, 7.29, repro,
2010-06-05,-1.57, 2.14, -10.32, 2.20, 1.64, 7.54, repro,
2010-06-06,-1.09, 4.84, -11.08, 2.13, 1.60, 7.34, repro,
2010-06-07,-0.35, 1.33, -9.48, 2.09, 1.55, 7.17, repro,
2010-06-08,-0.89, 1.86, -6.94, 2.09, 1.55, 7.15, repro,
2010-06-09,-1.57, 3.08, -3.80, 2.10, 1.55, 7.15, repro,
2010-06-10,-2.80, 2.19, -6.31, 2.10, 1.55, 7.20, repro,
2010-06-11,-2.57, 3.35, -2.14, 2.13, 1.58, 7.32, repro,
2010-06-12,-3.31, -0.08, -4.25, 2.12, 1.56, 7.26, repro,
2010-06-13,-2.19, 2.69, -8.22, 2.10, 1.55, 7.16, repro,
2010-06-14,-1.68, 2.82, -6.51, 2.09, 1.55, 7.17, repro,
2010-06-15,-2.51, 1.73, -1.44, 2.11, 1.57, 7.26, repro,
2010-06-16,-1.73, 2.50, -0.98, 2.12, 1.62, 7.40, repro,
2010-06-17,-1.57, 2.38, -8.19, 2.18, 1.63, 7.42, repro,
2010-06-18,-1.97, 1.74, 0.09, 2.15, 1.61, 7.41, repro,
2010-06-19,-2.06, 3.07, -4.07, 2.09, 1.55, 7.17, repro,
2010-06-20,-3.31, 2.91, -7.28, 2.11, 1.57, 7.26, repro,
2010-06-21,-1.14, 3.35, -4.37, 2.10, 1.57, 7.28, repro,
2010-06-22,-1.79, 1.85, -3.48, 2.15, 1.61, 7.35, repro,
2010-06-23,-2.73, 0.41, -3.08, 2.21, 1.70, 7.64, repro,
2010-06-24,0.02, 1.58, -10.76, 2.12, 1.61, 7.36, repro,
2010-06-25,-2.22, 2.30, -6.20, 2.14, 1.62, 7.42, repro,
2010-06-26,-1.88, 1.54, -4.71, 2.10, 1.57, 7.28, repro,
2010-06-27,-2.79, 3.21, -1.08, 2.10, 1.56, 7.22, repro,
2010-06-28,-1.40, 1.29, 0.76, 2.13, 1.60, 7.30, repro,
2010-06-29,-2.73, 2.71, -2.30, 2.07, 1.55, 7.17, repro,
2010-06-30,-3.02, 3.16, -1.84, 2.06, 1.55, 7.12, repro,
2010-07-01,-2.35, 2.05, -2.87, 2.09, 1.57, 7.27, repro,
2010-07-02,-2.51, 1.78, -0.99, 2.08, 1.57, 7.26, repro,
2010-07-03,-2.06, 2.20, 3.52, 2.08, 1.55, 7.17, repro,
2010-07-04,-2.08, 2.51, -1.56, 2.07, 1.55, 7.14, repro,
2010-07-05,-1.80, 2.86, 1.69, 2.07, 1.56, 7.17, repro,
2010-07-06,-2.86, 2.34, -1.01, 2.09, 1.57, 7.26, repro,
2010-07-07,-2.87, 2.13, -0.45, 2.14, 1.63, 7.41, repro,
2010-07-08,-3.06, 0.69, -5.25, 2.11, 1.62, 7.30, repro,
2010-07-09,-3.99, 0.11, 2.71, 2.07, 1.56, 7.19, repro,
2010-07-10,-3.84, 3.27, 0.15, 2.15, 1.61, 7.38, repro,
2010-07-11,-2.19, 1.95, 5.54, 2.08, 1.57, 7.21, repro,
2010-07-12,-1.99, 2.20, 3.10, 2.08, 1.57, 7.25, repro,
2010-07-13,-1.41, 1.51, 6.03, 2.12, 1.62, 7.34, repro,
2010-07-14,-3.06, 2.65, -0.82, 2.06, 1.56, 7.16, repro,
2010-07-15,-2.23, 1.87, -7.45, 2.07, 1.56, 7.18, repro,
2010-07-16,-2.12, 2.08, -2.62, 2.07, 1.57, 7.18, repro,
2010-07-17,-0.75, 2.45, -4.98, 2.08, 1.57, 7.20, repro,
2010-07-18,-1.97, 1.67, -4.51, 2.16, 1.63, 7.43, repro,
2010-07-19,-3.06, 0.48, -2.12, 2.07, 1.56, 7.13, repro,
2010-07-20,-0.99, 1.18, -2.53, 2.08, 1.56, 7.18, repro,
2010-07-21,-3.31, 3.09, -2.76, 2.09, 1.57, 7.19, repro,
2010-07-22,-2.21, 0.94, 1.59, 2.07, 1.57, 7.16, repro,
2010-07-23,-2.22, 2.95, -1.52, 2.06, 1.57, 7.11, repro,
2010-07-24,-4.08, 1.75, -1.38, 2.07, 1.57, 7.12, repro,
2010-07-25,-2.68, 1.79, -1.98, 2.11, 1.63, 7.32, repro,
2010-07-26,-2.79, 1.33, -2.71, 2.08, 1.58, 7.19, repro,
2010-07-27,-3.40, 2.35, -2.75, 2.08, 1.58, 7.18, repro,
2010-07-28,-1.86, 1.17, -8.26, 2.06, 1.56, 7.09, repro,
2010-07-29,-2.13, 1.75, -5.11, 2.10, 1.62, 7.23, repro,
2010-07-30,-2.29, 1.79, -5.47, 2.14, 1.66, 7.47, repro,
2010-07-31,-2.54, 2.13, -3.02, 2.08, 1.56, 7.11, repro,
2010-08-01,-0.52, 2.65, 0.07, 2.10, 1.58, 7.20, repro,
2010-08-02,0.53, 2.92, -3.40, 2.08, 1.57, 7.11, repro,
2010-08-03,-1.88, 2.09, -0.77, 2.10, 1.60, 7.19, repro,
2010-08-04,-1.26, 1.93, -2.89, 2.15, 1.63, 7.33, repro,
2010-08-05,-2.37, 2.65, 4.34, 2.10, 1.57, 7.20, repro,
2010-08-06,-2.87, 1.13, 2.85, 2.08, 1.56, 7.12, repro,
2010-08-07,-1.41, 1.24, 8.32, 2.09, 1.57, 7.18, repro,
2010-08-08,-2.05, 1.28, 4.56, 2.10, 1.58, 7.16, repro,
2010-08-09,0.06, 1.53, -0.15, 2.08, 1.57, 7.16, repro,
2010-08-10,-0.80, 2.47, -1.45, 2.08, 1.57, 7.19, repro,
2010-08-11,-2.17, 2.64, -1.69, 2.07, 1.56, 7.13, repro,
2010-08-12,-2.95, 3.33, -5.36, 2.07, 1.56, 7.10, repro,
2010-08-13,-1.86, 3.35, 2.11, 2.06, 1.56, 7.08, repro,
2010-08-14,-1.34, 1.77, -2.91, 2.06, 1.56, 7.08, repro,
2010-08-15,-3.19, 1.86, -0.67, 2.07, 1.57, 7.14, repro,
2010-08-16,-1.29, 1.64, -6.12, 2.06, 1.57, 7.12, repro,
2010-08-17,-2.00, 2.79, -1.05, 2.06, 1.57, 7.10, repro,
2010-08-18,-1.47, 1.97, -3.24, 2.10, 1.59, 7.22, repro,
2010-08-19,-2.23, 2.29, 0.44, 2.13, 1.64, 7.47, repro,
2010-08-20,-1.57, 1.74, 1.64, 2.06, 1.57, 7.07, repro,
2010-08-21,-0.46, 2.42, 1.91, 2.06, 1.58, 7.12, repro,
2010-08-22,-1.99, 1.98, -2.77, 2.03, 1.55, 6.98, repro,
2010-08-23,-2.04, 1.15, -8.61, 2.01, 1.54, 6.93, repro,
2010-08-24,-1.77, 2.74, -5.29, 2.08, 1.55, 7.05, repro,
2010-08-25,-1.06, 2.28, -0.69, 2.03, 1.55, 7.02, repro,
2010-08-26,-0.99, 1.56, 1.43, 2.05, 1.58, 7.15, repro,
2010-08-27,-1.73, 0.62, -1.98, 2.09, 1.63, 7.31, repro,
2010-08-28,-1.72, 0.62, 1.59, 1.99, 1.53, 6.89, repro,
2010-08-29,-1.80, 1.14, -0.72, 1.98, 1.51, 6.80, repro,
2010-08-30,-2.66, 1.17, 3.85, 2.02, 1.56, 7.06, repro,
2010-08-31,0.18, 1.59, 3.96, 2.03, 1.56, 7.06, repro,
2010-09-01,-2.08, 1.60, 0.10, 1.99, 1.54, 6.94, repro,
2010-09-02,-1.82, 2.39, 0.89, 1.99, 1.52, 6.87, repro,
2010-09-03,-2.62, 1.83, -1.62, 2.00, 1.53, 6.89, repro,
2010-09-04,-2.00, 2.50, 1.70, 1.99, 1.53, 6.89, repro,
2010-09-05,-0.90, 2.74, 9.71, 2.00, 1.54, 6.92, repro,
2010-09-06,-1.30, 2.07, 1.27, 1.99, 1.54, 6.92, repro,
2010-09-07,-1.30, 2.15, 2.32, 1.99, 1.53, 6.93, repro,
2010-09-08,-3.17, 1.67, -1.58, 1.99, 1.53, 6.91, repro,
2010-09-09,-0.92, 2.17, -3.12, 1.99, 1.54, 6.93, repro,
2010-09-10,-0.92, 2.52, -0.53, 1.99, 1.54, 6.96, repro,
2010-09-11,-1.85, 3.79, 2.96, 2.03, 1.60, 7.16, repro,
2010-09-12,-1.31, 1.44, -5.20, 2.00, 1.55, 6.99, repro,
2010-09-13,-2.42, 2.27, 0.01, 2.00, 1.54, 6.97, repro,
2010-09-14,-2.28, 1.17, -3.52, 2.00, 1.54, 6.96, repro,
2010-09-15,-1.43, 2.62, 1.55, 2.00, 1.54, 6.98, repro,
2010-09-16,-0.82, 1.74, 1.29, 2.05, 1.60, 7.13, repro,
2010-09-17,-1.44, 2.44, 2.77, 1.99, 1.55, 7.02, repro,
2010-09-18,-1.07, 1.63, -2.38, 2.00, 1.54, 6.96, repro,
2010-09-19,-2.77, 1.03, 7.31, 2.01, 1.55, 7.01, repro,
2010-09-20,-1.12, 1.29, 0.96, 2.01, 1.54, 6.98, repro,
2010-09-21,-1.35, 1.51, 2.77, 2.02, 1.58, 7.13, repro,
2010-09-22,-2.50, 1.54, 2.85, 2.01, 1.58, 7.15, repro,
2010-09-23,-1.82, 1.06, -1.10, 2.04, 1.55, 7.08, repro,
2010-09-24,-1.74, 1.08, -0.14, 1.99, 1.53, 6.88, repro,
2010-09-25,-2.06, 0.74, 0.10, 2.04, 1.57, 7.11, repro,
2010-09-26,-2.32, 1.25, -2.92, 1.99, 1.53, 6.92, repro,
2010-09-27,-3.35, 1.40, 1.76, 2.03, 1.58, 6.99, repro,
2010-09-28,-2.68, 1.25, 1.65, 2.04, 1.59, 7.05, repro,
2010-09-29,-2.37, 0.59, 0.11, 2.00, 1.53, 6.89, repro,
2010-09-30,-2.77, 1.17, 1.85, 2.08, 1.58, 7.22, repro,
2010-10-01,-3.08, 1.79, 2.32, 2.05, 1.55, 7.08, repro,
2010-10-02,-3.64, 1.13, 2.89, 1.99, 1.53, 6.93, repro,
2010-10-03,-1.17, 0.61, 1.03, 2.03, 1.56, 7.10, repro,
2010-10-04,-3.35, 0.97, 0.79, 2.04, 1.55, 7.06, repro,
2010-10-05,-3.37, 1.75, -1.60, 2.01, 1.54, 6.99, repro,
2010-10-06,-1.59, 0.17, -6.63, 2.01, 1.54, 7.00, repro,
2010-10-07,-2.45, 2.09, -3.58, 2.00, 1.54, 6.95, repro,
2010-10-08,-2.44, 1.65, -6.16, 2.06, 1.59, 7.12, repro,
2010-10-09,-3.22, 1.67, -0.02, 2.06, 1.56, 7.12, repro,
2010-10-10,-3.35, 3.34, -2.79, 2.07, 1.55, 7.11, repro,
2010-10-11,-2.86, 2.54, -0.02, 2.07, 1.56, 7.14, repro,
2010-10-12,-1.93, 1.82, -4.54, 2.07, 1.56, 7.11, repro,
2010-10-13,-2.39, 2.22, -4.35, 2.06, 1.56, 7.12, repro,
2010-10-14,-2.60, 2.84, 0.15, 2.03, 1.57, 7.12, repro,
2010-10-15,-2.12, 3.98, -2.59, 2.03, 1.56, 7.10, repro,
2010-10-16,-1.94, 2.37, 0.41, 2.01, 1.53, 6.93, repro,
2010-10-17,-3.16, 2.16, 4.47, 2.03, 1.56, 7.07, repro,
2010-10-18,-2.43, 1.20, -5.84, 2.06, 1.60, 7.17, repro,
2010-10-19,-2.34, -0.02, -9.29, 2.07, 1.61, 7.19, repro,
2010-10-20,-2.33, 1.85, -5.77, 2.00, 1.54, 6.97, repro,
2010-10-21,-2.88, 1.57, -2.01, 2.09, 1.59, 7.23, repro,
2010-10-22,-3.17, 1.93, 6.53, 2.00, 1.54, 6.98, repro,
2010-10-23,-2.78, 2.91, 1.31, 2.05, 1.57, 7.13, repro,
2010-10-24,-2.10, 1.65, -2.66, 2.09, 1.60, 7.32, repro,